Regional Weather Roundup
Issued by NWS

Home | Current Version | Previous Version | Graphics & Text | Print | Product List | Glossary On
Versions: 1 2 3 4 5 6 7 8 9 10 11 12 13 14 15 16 17 18 19 20 21 22 23 24 25 26 27 28 29 30 31 32 33 34 35 36 37 38 39 40 41 42 43 44 45 46 47
000
ASUS45 KBOU 230407
RWRCO

WEATHER ROUNDUP FOR COLORADO
NATIONAL WEATHER SERVICE DENVER/BOULDER CO
1000 PM MDT MON SEP 22 2014

NOTE: "FAIR" INDICATES FEW OR NO CLOUDS BELOW 12000 FEET WITH NO
SIGNIFICANT WEATHER AND/OR OBSTRUCTIONS TO VISIBILITY.

COZ001>005-013-030-031-230500-
...NORTHWEST COLORADO...

CITY           SKY/WX    TMP DP  RH WIND       PRES   REMARKS
CRAIG          MOCLDY    57  48  72 W7        30.24R
HAYDEN         CLOUDY    57  45  62 N6        30.25S
MEEKER         LGT RAIN  56  50  80 NE8       30.27S
MOUNT WERNER   NOT AVBL
STEAMBOAT SPGS MOCLDY    53  49  88 NE3       30.26S
WALDEN         CLOUDY    46  43  87 SE6       30.32S
$$

COZ006>008-011-230500-
...WEST CENTRAL VALLEYS...

CITY           SKY/WX    TMP DP  RH WIND       PRES   REMARKS
GRAND JUNCTION CLOUDY    64  53  67 CALM      30.15R
MONTROSE       CLEAR     58  54  86 SE7       30.24R
EAGLE          CLOUDY    57  52  82 NW5       30.30R
RIFLE          CLOUDY    61  53  75 S6        30.21R
DELTA          CLOUDY    65  55  71 NE3       30.19R
NUCLA          CLEAR     61  50  67 E8        30.26S
$$

COZ017>023-064>068-230500-
...SOUTHWEST COLORADO...

CITY           SKY/WX    TMP DP  RH WIND       PRES   REMARKS
DURANGO        CLEAR     56  45  66 N5        30.28R
CORTEZ         CLEAR     57  50  77 E3        30.23R
PAGOSA SPRINGS CLEAR     52  48  87 CALM      30.36R
TELLURIDE      NOT AVBL
WOLF CREEK PAS CLEAR     39  39 100 SW18G25   30.59S
$$

COZ009-010-012-014-032>034-037-058>063-230500-
...CENTRAL COLORADO...

CITY           SKY/WX    TMP DP  RH WIND       PRES   REMARKS
ASPEN          MOCLDY    51  48  89 S5        30.34S
BUENA VISTA    PTCLDY    56  42  61 NW7       30.33R
COPPER MTN     PTCLDY    45  36  70 W13G20    30.57S
BERTHOUD PASS  FAIR      34  32  93 NW26G36   30.55F WCI  21
COTTONWOOD PAS PTCLDY    55  37  50 NW5       30.44R
GUNNISON       PTCLDY    54  45  71 N7        30.36S
KREMMLING      CLOUDY    54  43  66 CALM      30.32S
LEADVILLE      CLOUDY    48  40  73 N9        30.44S
MONARCH PASS   CLEAR     41  36  81 W37G45    30.65R
SALIDA         PTCLDY    59  44  57 SW9       30.36S
SUNLIGHT       MOCLDY    45  45 100 CALM      30.52S
WILKERSON PASS NOT AVBL
$$

COZ069>075-230500-
...SAN LUIS VALLEY/SANGRE DE CRISTO MOUNTAINS...

CITY           SKY/WX    TMP DP  RH WIND       PRES   REMARKS
ALAMOSA        CLEAR     52  43  71 SW8       30.30R
LA VETA PASS   CLEAR     46  43  87 S6        30.45S
SAGUACHE       CLEAR     57  45  62 NW14      30.33S
$$

COZ035-036-038>040-230500-
...NORTHERN COLORADO FRONT RANGE...

CITY           SKY/WX    TMP DP  RH WIND       PRES   REMARKS
DENVER INTL AP PTCLDY    60  50  69 SW7       30.13S
DMNS CITY PARK   N/A     63  51  64 S5        30.13S
AURORA         PTCLDY    59  51  76 S8        30.15F
FRONT RANGE AP CLEAR     59  52  77 CALM      30.14F
ERIE MUNI ARPT NOT AVBL
BOULDER MUN AP PTCLDY    64  41  42 CALM      30.12F
CENTENNIAL     MOCLDY    60  52  74 S6        30.16S
BROOMFIELD     MOCLDY    68  41  37 VRB6      30.15S
FORT COLLINS   PTCLDY    63  46  55 SE6       30.12S
LONGMONT       CLOUDY    65  45  47 N6        30.12F
$$

COZ041-046-047-076>085-087-088-230500-
...PIKES PEAK/PALMER DIVIDE AND SOUTHERN FOOTHILLS...

CITY           SKY/WX    TMP DP  RH WIND       PRES   REMARKS
COLO. SPRINGS  PTCLDY    61  50  67 NW8       30.19R
A. F. ACADEMY  CLEAR     56  49  77 N9        30.21S
ELLICOTT       NOT AVBL
FALCON         CLEAR     56  49  75 N7        30.23S
FORT CARSON    CLEAR     62  51  67 NW10      30.16R
LIMON          LGT RAIN  58  53  84 W5        30.13F
MONUMENT HILL  CLOUDY    52  48  87 SW7       30.23F
TRINIDAD       CLEAR     65  54  67 SW12G23   30.18R
$$

COZ042>045-048>051-090-091-230500-
...NORTHEAST COLORADO...

CITY           SKY/WX    TMP DP  RH WIND       PRES   REMARKS
GREELEY ARPT   PTCLDY    61  45  55 NE5       30.10F
AKRON          MOCLDY    60  55  83 S10       30.07S
BURLINGTON     CLOUDY    63  55  75 NE12      30.12R
WRAY           CLOUDY    61  57  87 SE7       30.06S
STERLING       MOCLDY    63  59  88 NE7       30.06R
HOLYOKE        CLOUDY    61  55  82 S5        30.08R
FORT MORGAN    MOCLDY    62  56  81 NW8       30.09R
$$

COZ086-089-092>099-230500-
...SOUTHEAST COLORADO...

CITY           SKY/WX    TMP DP  RH WIND       PRES   REMARKS
PUEBLO         CLEAR     65  55  70 NW5       30.07R
LA JUNTA       CLEAR     69  58  67 SW17      30.05F
LAMAR          CLEAR     69  59  70 S21G29    30.03F
SPRINGFIELD      N/A     64  60  87 S18G26    30.14F
$$



USA.gov is the U.S. government's official web portal to all federal, state and local government web resources and services.